User: anonymous   Login
Location: Unspecified
(0.0000°N, 0.0000°E)
Time: 10:03:46
(UTC+00:00)
Language:

BEIDOU-3 M25 - Orbit

View from above orbital plane
View from above orbital plane
View from above satellite
View from above satellite

Ground track
Ground track

The orbit is defined by the following mean orbital elements,

1 58654U          26145.21002653 +.00000000 +00000-0 +00000-0 0 00008
2 58654  55.7334  63.0780 0003880 337.0114  22.9642  1.86229732    04
Epoch (UTC): 25 May 2026 05:02:26
Eccentricity: 0.0003880
inclination: 55.7334°
perigee height: 21517 km
apogee height: 21539 km
right ascension of ascending node: 63.0780°
argument of perigee: 337.0114°
revolutions per day: 1.86229732
mean anomaly at epoch: 22.9642°

The dashed part of the orbit path shows where the satellite is in the earth's shadow,  

DLR